| time (UTC) | temp F | wind direction | speed MPH | gust MPH | rain 1hr in | rain 24hr in | rain mn in | humidity % | barometer mb |
| 20260506073524 | 40 | 0 | 0.0 | 2.0 | 0.00 | 0.00 | 0.00 | 92 | 1020.1 |
| 20260506073046 | 40 | 0 | 0.0 | 2.0 | 0.00 | 0.00 | 0.00 | 92 | 1020.1 |
| 20260506072523 | 40 | 286 | 0.0 | 2.0 | 0.00 | 0.00 | 0.00 | 93 | 1020.1 |
| 20260506072022 | 40 | 286 | 0.0 | 2.0 | 0.00 | 0.00 | 0.00 | 92 | 1020.0 |
| 20260506071540 | 41 | 286 | 0.0 | 2.0 | 0.00 | 0.00 | 0.00 | 92 | 1019.8 |
| 20260506071022 | 41 | 0 | 0.0 | 0.0 | 0.00 | 0.00 | 0.00 | 92 | 1019.8 |
| 20260506070524 | 41 | 0 | 0.0 | 0.0 | 0.00 | 0.00 | 0.00 | 91 | 1019.8 |
| 20260506062024 | 44 | 0 | 0.0 | 0.0 | 0.00 | 0.00 | 0.00 | 90 | 1019.3 |
| 20260506061543 | 44 | 0 | 0.0 | 0.0 | 0.00 | 0.00 | 0.00 | 90 | 1019.2 |
| 20260506061028 | 44 | 0 | 0.0 | 0.0 | 0.00 | 0.00 | 0.00 | 89 | 1019.2 |
| 20260506060522 | 44 | 0 | 0.0 | 0.0 | 0.00 | 0.00 | 0.00 | 89 | 1019.1 |
| 20260506051024 | 48 | 0 | 1.0 | 2.0 | 0.00 | 0.04 | 0.00 | 86 | 1018.6 |
| 20260506050523 | 48 | 286 | 0.0 | 2.0 | 0.00 | 0.04 | 0.00 | 86 | 1018.4 |
| 20260506045023 | 49 | 0 | 0.0 | 1.0 | 0.00 | 0.15 | 0.00 | 84 | 1018.3 |
| 20260506044546 | 49 | 0 | 0.0 | 1.0 | 0.00 | 0.15 | 0.00 | 84 | 1018.2 |
| 20260506044021 | 50 | 0 | 0.0 | 1.0 | 0.00 | 0.15 | 0.00 | 84 | 1018.2 |
| 20260506043529 | 50 | 286 | 0.0 | 1.0 | 0.00 | 0.15 | 0.00 | 84 | 1018.0 |
| 20260506043039 | 50 | 0 | 0.0 | 2.0 | 0.00 | 0.15 | 0.00 | 83 | 1018.0 |
| 20260506042523 | 50 | 0 | 0.0 | 2.0 | 0.00 | 0.15 | 0.00 | 83 | 1018.0 |
| 20260506042023 | 50 | 0 | 0.0 | 3.0 | 0.00 | 0.15 | 0.00 | 82 | 1018.0 |
| 20260506041536 | 50 | 286 | 1.0 | 3.0 | 0.00 | 0.15 | 0.00 | 81 | 1017.9 |
| 20260506041023 | 50 | 0 | 0.0 | 2.0 | 0.00 | 0.15 | 0.00 | 82 | 1017.8 |
| 20260506040523 | 50 | 286 | 0.0 | 2.0 | 0.00 | 0.15 | 0.00 | 81 | 1017.8 |
| 20260506040058 | 50 | 0 | 0.0 | 2.0 | 0.00 | 0.15 | 0.00 | 81 | 1017.5 |
| 20260506035523 | 51 | 0 | 0.0 | 2.0 | 0.00 | 0.31 | 0.00 | 80 | 1017.5 |
| 20260506035024 | 51 | 287 | 0.0 | 2.0 | 0.00 | 0.31 | 0.00 | 79 | 1017.5 |
| 20260506034548 | 51 | 0 | 1.0 | 2.0 | 0.00 | 0.31 | 0.00 | 78 | 1017.4 |
| 20260506034024 | 52 | 0 | 0.0 | 2.0 | 0.00 | 0.31 | 0.00 | 78 | 1017.3 |
| 20260506033523 | 52 | 287 | 1.0 | 2.0 | 0.00 | 0.31 | 0.00 | 78 | 1017.0 |
| 20260506033042 | 52 | 0 | 0.0 | 2.0 | 0.00 | 0.31 | 0.00 | 77 | 1016.9 |
| 20260506032523 | 53 | 0 | 0.0 | 2.0 | 0.00 | 0.31 | 0.00 | 76 | 1016.7 |
| 20260506032023 | 53 | 0 | 0.0 | 3.0 | 0.00 | 0.31 | 0.00 | 75 | 1016.7 |
| 20260506031552 | 54 | 0 | 1.0 | 3.0 | 0.00 | 0.31 | 0.00 | 74 | 1016.5 |
| 20260506031025 | 54 | 287 | 1.0 | 3.0 | 0.00 | 0.31 | 0.00 | 74 | 1016.5 |
| 20260506030522 | 55 | 287 | 1.0 | 3.0 | 0.00 | 0.31 | 0.00 | 72 | 1016.3 |
| 20260506030044 | 56 | 286 | 0.0 | 2.0 | 0.00 | 0.31 | 0.00 | 70 | 1016.2 |
| 20260506025522 | 56 | 0 | 0.0 | 3.0 | 0.00 | 0.44 | 0.00 | 69 | 1016.1 |
| 20260506025022 | 56 | 280 | 0.0 | 3.0 | 0.00 | 0.44 | 0.00 | 69 | 1016.1 |
| 20260506024546 | 57 | 280 | 0.0 | 3.0 | 0.00 | 0.44 | 0.00 | 68 | 1016.1 |
| 20260506024023 | 57 | 0 | 0.0 | 2.0 | 0.00 | 0.44 | 0.00 | 68 | 1016.0 |
| 20260506023523 | 58 | 0 | 0.0 | 2.0 | 0.00 | 0.44 | 0.00 | 67 | 1016.0 |
| 20260506023042 | 58 | 0 | 0.0 | 2.0 | 0.00 | 0.44 | 0.00 | 67 | 1016.0 |
| 20260506022526 | 58 | 0 | 0.0 | 2.0 | 0.00 | 0.44 | 0.00 | 65 | 1015.8 |
| 20260506022023 | 59 | 0 | 0.0 | 2.0 | 0.00 | 0.44 | 0.00 | 65 | 1015.6 |
| 20260506021540 | 59 | 0 | 1.0 | 2.0 | 0.00 | 0.44 | 0.00 | 63 | 1015.5 |
| 20260506021022 | 59 | 0 | 0.0 | 2.0 | 0.00 | 0.44 | 0.00 | 62 | 1015.6 |
| 20260506020523 | 60 | 315 | 0.0 | 3.0 | 0.00 | 0.44 | 0.00 | 62 | 1015.4 |
| 20260506020038 | 60 | 300 | 0.0 | 3.0 | 0.00 | 0.44 | 0.00 | 61 | 1015.4 |
| 20260506015526 | 60 | 0 | 0.0 | 5.0 | 0.00 | 0.69 | 0.00 | 62 | 1015.3 |
| 20260506015023 | 61 | 222 | 1.0 | 5.0 | 0.00 | 0.69 | 0.00 | 61 | 1015.3 |
| 20260506014541 | 61 | 244 | 1.0 | 5.0 | 0.00 | 0.69 | 0.00 | 60 | 1015.4 |
| 20260506014023 | 61 | 267 | 0.0 | 4.0 | 0.00 | 0.69 | 0.00 | 62 | 1015.2 |
| 20260506013525 | 61 | 232 | 1.0 | 4.0 | 0.00 | 0.69 | 0.00 | 60 | 1015.2 |
| 20260506013045 | 62 | 37 | 1.0 | 4.0 | 0.00 | 0.69 | 0.00 | 60 | 1015.2 |
| 20260506012524 | 62 | 223 | 1.0 | 4.0 | 0.00 | 0.69 | 0.00 | 55 | 1015.1 |
| 20260506012025 | 62 | 216 | 0.0 | 2.0 | 0.00 | 0.69 | 0.00 | 56 | 1015.2 |
| 20260506011540 | 62 | 0 | 0.0 | 3.0 | 0.00 | 0.69 | 0.00 | 54 | 1015.2 |
| 20260506011023 | 62 | 0 | 0.0 | 4.0 | 0.00 | 0.69 | 0.00 | 53 | 1015.1 |
| 20260506010522 | 62 | 203 | 1.0 | 4.0 | 0.00 | 0.69 | 0.00 | 49 | 1015.0 |
| 20260506010043 | 62 | 180 | 1.0 | 4.0 | 0.00 | 0.69 | 0.00 | 51 | 1015.0 |
| 20260506005526 | 61 | 209 | 1.0 | 4.0 | 0.00 | 0.70 | 0.00 | 54 | 1015.0 |
| 20260506005025 | 60 | 0 | 0.0 | 1.0 | 0.00 | 0.70 | 0.00 | 56 | 1015.1 |
| 20260506004548 | 61 | 0 | 0.0 | 3.0 | 0.00 | 0.70 | 0.00 | 56 | 1015.2 |
| 20260506004029 | 61 | 0 | 0.0 | 3.0 | 0.00 | 0.70 | 0.00 | 56 | 1015.0 |
| 20260506003524 | 62 | 188 | 0.0 | 3.0 | 0.00 | 0.70 | 0.00 | 50 | 1014.9 |
| 20260506003045 | 62 | 0 | 0.0 | 2.0 | 0.00 | 0.70 | 0.00 | 54 | 1015.0 |
| 20260506002522 | 62 | 0 | 0.0 | 2.0 | 0.00 | 0.70 | 0.00 | 55 | 1015.0 |
| 20260506002023 | 62 | 0 | 0.0 | 2.0 | 0.00 | 0.70 | 0.00 | 54 | 1015.0 |
| 20260506001544 | 62 | 205 | 0.0 | 3.0 | 0.00 | 0.70 | 0.00 | 50 | 1015.0 |
| 20260506001023 | 63 | 205 | 0.0 | 3.0 | 0.00 | 0.70 | 0.00 | 53 | 1015.0 |
| 20260506000523 | 62 | 286 | 0.0 | 3.0 | 0.00 | 0.70 | 0.00 | 53 | 1015.0 |
| 20260506000044 | 62 | 0 | 0.0 | 3.0 | 0.00 | 0.70 | 0.00 | 53 | 1015.0 |
| 20260505235525 | 62 | 48 | 0.0 | 3.0 | 0.00 | 0.70 | 0.00 | 51 | 1015.0 |
| 20260505235023 | 62 | 0 | 0.0 | 7.0 | 0.00 | 0.70 | 0.00 | 51 | 1015.0 |
| 20260505234550 | 63 | 46 | 1.0 | 8.0 | 0.00 | 0.70 | 0.00 | 47 | 1014.9 |
| 20260505234026 | 64 | 42 | 2.0 | 8.0 | 0.00 | 0.70 | 0.00 | 49 | 1014.9 |
| 20260505233526 | 64 | 144 | 2.0 | 5.0 | 0.00 | 0.70 | 0.00 | 47 | 1014.9 |
| 20260505233050 | 65 | 140 | 2.0 | 7.0 | 0.00 | 0.70 | 0.00 | 44 | 1014.9 |
| 20260505232523 | 65 | 122 | 3.0 | 9.0 | 0.00 | 0.70 | 0.00 | 44 | 1015.0 |
| 20260505232026 | 66 | 72 | 1.0 | 9.0 | 0.00 | 0.70 | 0.00 | 47 | 1015.0 |
| 20260505231557 | 67 | 117 | 2.0 | 8.0 | 0.00 | 0.70 | 0.00 | 44 | 1015.0 |
| 20260505231024 | 67 | 323 | 2.0 | 6.0 | 0.00 | 0.70 | 0.00 | 45 | 1014.9 |
| 20260505230523 | 67 | 360 | 2.0 | 5.0 | 0.00 | 0.70 | 0.00 | 46 | 1015.0 |
| 20260505230044 | 66 | 194 | 2.0 | 7.0 | 0.00 | 0.70 | 0.00 | 45 | 1015.0 |
| 20260505225527 | 66 | 155 | 2.0 | 9.0 | 0.00 | 0.70 | 0.00 | 49 | 1015.1 |
| 20260505225026 | 65 | 164 | 2.0 | 9.0 | 0.00 | 0.70 | 0.00 | 48 | 1015.0 |
| 20260505224544 | 65 | 134 | 4.0 | 9.0 | 0.00 | 0.70 | 0.00 | 45 | 1015.1 |
| 20260505224026 | 64 | 141 | 2.0 | 11.0 | 0.00 | 0.70 | 0.00 | 51 | 1015.2 |
| 20260505223529 | 65 | 225 | 6.0 | 11.0 | 0.00 | 0.70 | 0.00 | 44 | 1015.3 |
| 20260505223049 | 65 | 145 | 2.0 | 7.0 | 0.00 | 0.70 | 0.00 | 46 | 1015.3 |
| 20260505222530 | 65 | 140 | 3.0 | 7.0 | 0.00 | 0.70 | 0.00 | 48 | 1015.4 |
| 20260505222026 | 65 | 168 | 3.0 | 8.0 | 0.00 | 0.70 | 0.00 | 46 | 1015.4 |
| 20260505221536 | 65 | 17 | 3.0 | 9.0 | 0.00 | 0.70 | 0.00 | 49 | 1015.4 |
| 20260505221022 | 64 | 202 | 3.0 | 9.0 | 0.00 | 0.70 | 0.00 | 50 | 1015.4 |
| 20260505220525 | 64 | 155 | 3.0 | 9.0 | 0.00 | 0.70 | 0.00 | 46 | 1015.6 |
| 20260505220044 | 64 | 183 | 3.0 | 9.0 | 0.00 | 0.70 | 0.00 | 48 | 1015.6 |
| 20260505215523 | 64 | 172 | 3.0 | 8.0 | 0.00 | 0.72 | 0.00 | 51 | 1015.6 |
| 20260505215023 | 64 | 147 | 3.0 | 10.0 | 0.00 | 0.72 | 0.00 | 50 | 1015.6 |
| 20260505214549 | 63 | 93 | 3.0 | 10.0 | 0.00 | 0.72 | 0.00 | 53 | 1015.6 |
| 20260505214027 | 63 | 165 | 4.0 | 9.0 | 0.00 | 0.72 | 0.00 | 51 | 1015.7 |
| 20260505213523 | 63 | 271 | 3.0 | 8.0 | 0.00 | 0.72 | 0.00 | 52 | 1015.8 |
| 20260505213042 | 63 | 109 | 3.0 | 8.0 | 0.00 | 0.72 | 0.00 | 52 | 1015.7 |
| 20260505212523 | 63 | 113 | 3.0 | 8.0 | 0.00 | 0.72 | 0.00 | 58 | 1015.8 |
| 20260505212024 | 62 | 96 | 4.0 | 9.0 | 0.00 | 0.72 | 0.00 | 58 | 1015.7 |
| 20260505211537 | 61 | 126 | 2.0 | 11.0 | 0.00 | 0.72 | 0.00 | 55 | 1015.9 |
| 20260505211026 | 62 | 134 | 3.0 | 11.0 | 0.00 | 0.72 | 0.00 | 56 | 1015.8 |
| 20260505210522 | 62 | 108 | 3.0 | 11.0 | 0.00 | 0.72 | 0.00 | 62 | 1015.8 |
| 20260505210045 | 61 | 55 | 5.0 | 11.0 | 0.00 | 0.72 | 0.00 | 58 | 1015.8 |
| 20260505205530 | 61 | 178 | 4.0 | 9.0 | 0.00 | 0.81 | 0.00 | 65 | 1015.8 |
| 20260505205027 | 60 | 163 | 5.0 | 9.0 | 0.00 | 0.81 | 0.00 | 60 | 1015.9 |
| 20260505204546 | 60 | 192 | 4.0 | 9.0 | 0.00 | 0.81 | 0.00 | 63 | 1015.9 |
| 20260505204029 | 60 | 102 | 4.0 | 9.0 | 0.00 | 0.81 | 0.00 | 63 | 1015.7 |
| 20260505203522 | 60 | 129 | 3.0 | 9.0 | 0.00 | 0.81 | 0.00 | 66 | 1015.8 |
| 20260505203047 | 59 | 153 | 2.0 | 9.0 | 0.00 | 0.81 | 0.00 | 65 | 1015.8 |
| 20260505202522 | 58 | 180 | 3.0 | 7.0 | 0.00 | 0.81 | 0.00 | 65 | 1015.8 |
| 20260505202025 | 57 | 0 | 1.0 | 4.0 | 0.00 | 0.81 | 0.00 | 68 | 1015.9 |
| 20260505201538 | 57 | 117 | 0.0 | 8.0 | 0.00 | 0.81 | 0.00 | 71 | 1015.9 |
| 20260505201023 | 57 | 116 | 2.0 | 8.0 | 0.00 | 0.81 | 0.00 | 72 | 1015.9 |
| 20260505200522 | 56 | 186 | 3.0 | 8.0 | 0.00 | 0.81 | 0.00 | 73 | 1015.9 |
| 20260505200042 | 55 | 144 | 3.0 | 8.0 | 0.00 | 0.81 | 0.00 | 73 | 1015.9 |
| 20260505195525 | 55 | 134 | 4.0 | 8.0 | 0.00 | 0.81 | 0.00 | 73 | 1016.1 |
| 20260505195022 | 55 | 138 | 4.0 | 7.0 | 0.00 | 0.81 | 0.00 | 73 | 1016.2 |
| 20260505194538 | 54 | 157 | 3.0 | 7.0 | 0.00 | 0.81 | 0.00 | 74 | 1016.2 |
| 20260505194023 | 54 | 157 | 2.0 | 7.0 | 0.00 | 0.81 | 0.00 | 79 | 1016.2 |
| 20260505193523 | 54 | 142 | 2.0 | 7.0 | 0.00 | 0.81 | 0.00 | 79 | 1016.2 |
| 20260505193042 | 54 | 166 | 2.0 | 7.0 | 0.00 | 0.81 | 0.00 | 80 | 1016.2 |
| 20260505192526 | 53 | 134 | 3.0 | 8.0 | 0.00 | 0.81 | 0.00 | 78 | 1016.2 |
| 20260505192022 | 53 | 154 | 4.0 | 8.0 | 0.00 | 0.81 | 0.00 | 82 | 1016.2 |
| 20260505191542 | 51 | 159 | 3.0 | 7.0 | 0.00 | 0.81 | 0.00 | 85 | 1016.2 |
| 20260505191021 | 51 | 131 | 3.0 | 7.0 | 0.00 | 0.81 | 0.00 | 83 | 1016.2 |
| 20260505190522 | 50 | 157 | 3.0 | 5.0 | 0.00 | 0.81 | 0.00 | 84 | 1016.3 |
| 20260505190043 | 50 | 132 | 2.0 | 4.0 | 0.00 | 0.81 | 0.00 | 86 | 1016.3 |
| 20260505185526 | 49 | 134 | 1.0 | 4.0 | 0.00 | 0.82 | 0.00 | 89 | 1016.3 |
| 20260505185023 | 48 | 134 | 2.0 | 4.0 | 0.00 | 0.82 | 0.00 | 89 | 1016.3 |
| 20260505184535 | 48 | 136 | 1.0 | 5.0 | 0.00 | 0.82 | 0.00 | 89 | 1016.2 |
| 20260505184023 | 47 | 135 | 3.0 | 5.0 | 0.00 | 0.82 | 0.00 | 89 | 1016.2 |
| 20260505183523 | 47 | 130 | 1.0 | 4.0 | 0.00 | 0.82 | 0.00 | 90 | 1016.2 |
| 20260505183045 | 47 | 130 | 1.0 | 4.0 | 0.00 | 0.82 | 0.00 | 88 | 1016.2 |
| 20260505182526 | 47 | 130 | 1.0 | 5.0 | 0.00 | 0.82 | 0.00 | 90 | 1016.2 |
| 20260505182022 | 46 | 132 | 2.0 | 7.0 | 0.00 | 0.82 | 0.00 | 91 | 1016.1 |
| 20260505181550 | 46 | 128 | 3.0 | 7.0 | 0.00 | 0.82 | 0.00 | 89 | 1016.1 |
| 20260505181022 | 46 | 136 | 4.0 | 7.0 | 0.00 | 0.82 | 0.00 | 90 | 1016.1 |
| 20260505180522 | 46 | 117 | 1.0 | 7.0 | 0.00 | 0.82 | 0.00 | 92 | 1016.1 |
| 20260505180042 | 46 | 128 | 3.0 | 7.0 | 0.00 | 0.82 | 0.00 | 92 | 1016.1 |
| 20260505175522 | 45 | 135 | 1.0 | 4.0 | 0.00 | 0.83 | 0.00 | 94 | 1016.0 |
| 20260505175022 | 44 | 131 | 2.0 | 5.0 | 0.00 | 0.83 | 0.00 | 92 | 1016.0 |
| 20260505174541 | 44 | 142 | 1.0 | 7.0 | 0.00 | 0.83 | 0.00 | 93 | 1016.0 |
| 20260505174026 | 44 | 129 | 1.0 | 7.0 | 0.00 | 0.83 | 0.00 | 94 | 1016.1 |
| 20260505173523 | 44 | 135 | 2.0 | 7.0 | 0.00 | 0.83 | 0.00 | 94 | 1016.0 |
| 20260505173036 | 43 | 134 | 2.0 | 7.0 | 0.00 | 0.83 | 0.00 | 95 | 1016.0 |
| 20260505172522 | 43 | 128 | 3.0 | 7.0 | 0.00 | 0.83 | 0.00 | 94 | 1015.9 |
| 20260505172023 | 43 | 121 | 3.0 | 5.0 | 0.00 | 0.83 | 0.00 | 95 | 1016.0 |
| 20260505171544 | 43 | 134 | 2.0 | 5.0 | 0.00 | 0.83 | 0.00 | 95 | 1016.0 |
| 20260505171023 | 43 | 124 | 2.0 | 5.0 | 0.00 | 0.83 | 0.00 | 95 | 1016.0 |
| 20260505170524 | 42 | 138 | 2.0 | 5.0 | 0.00 | 0.83 | 0.00 | 95 | 1016.0 |
| 20260505170042 | 42 | 140 | 1.0 | 5.0 | 0.00 | 0.83 | 0.00 | 95 | 1015.9 |
| 20260505165522 | 42 | 140 | 2.0 | 5.0 | 0.00 | 0.87 | 0.00 | 95 | 1015.8 |
| 20260505165023 | 42 | 136 | 2.0 | 5.0 | 0.00 | 0.87 | 0.00 | 95 | 1015.9 |
| 20260505164535 | 41 | 138 | 2.0 | 4.0 | 0.00 | 0.87 | 0.00 | 95 | 1015.8 |
| 20260505164025 | 41 | 136 | 2.0 | 4.0 | 0.00 | 0.87 | 0.00 | 96 | 1015.7 |
| 20260505163526 | 41 | 134 | 2.0 | 5.0 | 0.00 | 0.87 | 0.00 | 95 | 1015.6 |
| 20260505163043 | 41 | 134 | 2.0 | 5.0 | 0.00 | 0.87 | 0.00 | 96 | 1015.6 |
| 20260505162522 | 41 | 134 | 1.0 | 4.0 | 0.00 | 0.87 | 0.00 | 96 | 1015.6 |
| 20260505162022 | 41 | 0 | 1.0 | 4.0 | 0.00 | 0.87 | 0.00 | 96 | 1015.5 |
| 20260505161544 | 40 | 134 | 1.0 | 4.0 | 0.00 | 0.87 | 0.00 | 96 | 1015.5 |
| 20260505161024 | 40 | 134 | 2.0 | 3.0 | 0.00 | 0.87 | 0.00 | 96 | 1015.4 |
| 20260505160523 | 40 | 134 | 1.0 | 3.0 | 0.00 | 0.87 | 0.00 | 96 | 1015.4 |
| 20260505153043 | 39 | 0 | 0.0 | 0.0 | 0.00 | 0.87 | 0.00 | 96 | 1015.4 |
| 20260505152523 | 39 | 0 | 0.0 | 0.0 | 0.00 | 0.87 | 0.00 | 96 | 1015.4 |
| 20260505152022 | 39 | 0 | 0.0 | 0.0 | 0.00 | 0.87 | 0.00 | 96 | 1015.3 |
| 20260505151547 | 39 | 0 | 0.0 | 0.0 | 0.00 | 0.87 | 0.00 | 96 | 1015.3 |
| 20260505151025 | 39 | 0 | 0.0 | 0.0 | 0.00 | 0.87 | 0.00 | 96 | 1015.2 |
| 20260505150522 | 38 | 0 | 0.0 | 0.0 | 0.00 | 0.87 | 0.00 | 96 | 1015.0 |
| 20260505140525 | 37 | 0 | 0.0 | 0.0 | 0.00 | 0.87 | 0.00 | 96 | 1014.4 |
| 20260505130105 | 37 | 0 | 0.0 | 0.0 | 0.00 | 0.87 | 0.00 | 96 | 1014.3 |
| 20260505125025 | 37 | 0 | 0.0 | 0.0 | 0.00 | 0.87 | 0.00 | 96 | 1014.1 |
| 20260505124552 | 37 | 0 | 0.0 | 0.0 | 0.00 | 0.87 | 0.00 | 96 | 1014.0 |
| 20260505124022 | 37 | 0 | 0.0 | 0.0 | 0.00 | 0.87 | 0.00 | 96 | 1014.1 |
| 20260505123525 | 37 | 0 | 0.0 | 0.0 | 0.00 | 0.87 | 0.00 | 96 | 1014.1 |
| 20260505123046 | 37 | 0 | 0.0 | 0.0 | 0.00 | 0.87 | 0.00 | 96 | 1014.0 |
| 20260505122523 | 37 | 0 | 0.0 | 0.0 | 0.00 | 0.87 | 0.00 | 96 | 1014.1 |
| 20260505122025 | 37 | 0 | 0.0 | 0.0 | 0.00 | 0.87 | 0.00 | 96 | 1014.1 |
| 20260505121540 | 37 | 0 | 0.0 | 0.0 | 0.00 | 0.87 | 0.00 | 96 | 1014.2 |
| 20260505121022 | 37 | 0 | 0.0 | 0.0 | 0.00 | 0.87 | 0.00 | 96 | 1014.2 |
| 20260505120526 | 37 | 0 | 0.0 | 0.0 | 0.00 | 0.87 | 0.00 | 95 | 1014.2 |
| 20260505120037 | 37 | 0 | 0.0 | 0.0 | 0.00 | 0.87 | 0.00 | 95 | 1014.1 |
| 20260505115522 | 37 | 0 | 0.0 | 0.0 | 0.00 | 0.87 | 0.00 | 95 | 1014.0 |
| 20260505115026 | 37 | 0 | 0.0 | 0.0 | 0.00 | 0.87 | 0.00 | 95 | 1014.1 |
| 20260505114544 | 37 | 0 | 0.0 | 0.0 | 0.00 | 0.87 | 0.00 | 96 | 1014.1 |
| 20260505114023 | 37 | 0 | 0.0 | 0.0 | 0.00 | 0.87 | 0.00 | 96 | 1014.0 |
| 20260505113522 | 37 | 0 | 0.0 | 0.0 | 0.00 | 0.87 | 0.00 | 96 | 1013.9 |
| 20260505113046 | 37 | 0 | 0.0 | 0.0 | 0.00 | 0.87 | 0.00 | 96 | 1014.1 |
| 20260505112522 | 37 | 0 | 0.0 | 0.0 | 0.00 | 0.87 | 0.00 | 96 | 1014.1 |
| 20260505112022 | 37 | 0 | 0.0 | 0.0 | 0.00 | 0.87 | 0.00 | 96 | 1014.1 |
| 20260505111541 | 37 | 0 | 0.0 | 0.0 | 0.00 | 0.87 | 0.00 | 96 | 1014.0 |
| 20260505111023 | 37 | 0 | 0.0 | 0.0 | 0.00 | 0.87 | 0.00 | 96 | 1014.1 |
| 20260505110522 | 37 | 0 | 0.0 | 0.0 | 0.00 | 0.87 | 0.00 | 96 | 1014.2 |
| 20260505102022 | 37 | 0 | 0.0 | 0.0 | 0.00 | 0.87 | 0.00 | 95 | 1014.3 |
| 20260505101539 | 37 | 0 | 0.0 | 0.0 | 0.00 | 0.87 | 0.00 | 95 | 1014.3 |
| 20260505101022 | 37 | 0 | 0.0 | 0.0 | 0.00 | 0.87 | 0.00 | 95 | 1014.4 |
| 20260505100526 | 37 | 0 | 0.0 | 0.0 | 0.00 | 0.87 | 0.00 | 95 | 1014.3 |
| 20260505100036 | 37 | 0 | 0.0 | 0.0 | 0.00 | 0.87 | 0.00 | 95 | 1014.3 |
| 20260505095521 | 37 | 0 | 0.0 | 0.0 | 0.00 | 0.87 | 0.00 | 95 | 1014.3 |
| 20260505095024 | 37 | 0 | 0.0 | 0.0 | 0.00 | 0.87 | 0.00 | 95 | 1014.2 |
| 20260505094544 | 37 | 0 | 0.0 | 1.0 | 0.00 | 0.87 | 0.00 | 95 | 1014.3 |
| 20260505094025 | 37 | 0 | 0.0 | 1.0 | 0.00 | 0.87 | 0.00 | 95 | 1014.4 |
| 20260505093523 | 37 | 0 | 0.0 | 2.0 | 0.00 | 0.87 | 0.00 | 95 | 1014.5 |
| 20260505093044 | 37 | 0 | 0.0 | 2.0 | 0.00 | 0.87 | 0.00 | 95 | 1014.5 |
| 20260505092527 | 37 | 0 | 0.0 | 1.0 | 0.00 | 0.87 | 0.00 | 95 | 1014.5 |
| 20260505092026 | 37 | 0 | 0.0 | 0.0 | 0.00 | 0.87 | 0.00 | 95 | 1014.5 |
| 20260505091537 | 37 | 0 | 0.0 | 0.0 | 0.00 | 0.87 | 0.00 | 95 | 1014.5 |
| 20260505091026 | 37 | 0 | 0.0 | 0.0 | 0.00 | 0.87 | 0.00 | 95 | 1014.5 |
| 20260505090522 | 37 | 0 | 0.0 | 0.0 | 0.00 | 0.87 | 0.00 | 95 | 1014.5 |
| 20260505090039 | 37 | 0 | 0.0 | 0.0 | 0.00 | 0.87 | 0.00 | 95 | 1014.5 |
| 20260505085529 | 37 | 0 | 0.0 | 0.0 | 0.00 | 0.87 | 0.00 | 95 | 1014.6 |
| 20260505085026 | 37 | 0 | 0.0 | 0.0 | 0.00 | 0.87 | 0.00 | 95 | 1014.5 |
| 20260505084544 | 37 | 0 | 0.0 | 0.0 | 0.00 | 0.87 | 0.00 | 95 | 1014.7 |
| 20260505084025 | 37 | 0 | 0.0 | 0.0 | 0.00 | 0.87 | 0.00 | 95 | 1014.7 |
| 20260505083522 | 37 | 0 | 0.0 | 0.0 | 0.00 | 0.87 | 0.00 | 95 | 1014.6 |
| 20260505083042 | 37 | 0 | 0.0 | 0.0 | 0.00 | 0.87 | 0.00 | 95 | 1014.7 |
| 20260505082522 | 37 | 0 | 0.0 | 0.0 | 0.00 | 0.87 | 0.00 | 95 | 1014.8 |
| 20260505082022 | 37 | 0 | 0.0 | 0.0 | 0.00 | 0.87 | 0.00 | 95 | 1014.8 |
| 20260505081543 | 37 | 0 | 0.0 | 0.0 | 0.00 | 0.87 | 0.00 | 95 | 1015.0 |
| 20260505081022 | 37 | 0 | 0.0 | 0.0 | 0.00 | 0.87 | 0.00 | 95 | 1015.0 |
| 20260505080524 | 37 | 0 | 0.0 | 0.0 | 0.00 | 0.87 | 0.00 | 95 | 1014.7 |